Time,TemperatureF,DewpointF,PressureIn,WindDirection,WindDirectionDegrees,WindSpeedMPH,WindSpeedGustMPH,Humidity,HourlyPrecipIn,Conditions,Clouds,dailyrainin,SolarRadiationWatts/m^2,SoftwareType,DateUTC
2013-03-02 00:01:00,34.0,20.0,-100.00,South,184,1.0,7.0,55,0.00,,,0.00,0.000000,,2013-03-02 07:01:00,
2013-03-02 00:11:00,34.0,20.0,-100.00,South,184,1.0,7.0,55,0.00,,,0.00,0.000000,,2013-03-02 07:11:00,
2013-03-02 00:21:00,34.0,20.0,-100.00,South,184,1.0,7.0,55,0.00,,,0.00,0.000000,,2013-03-02 07:21:00,
2013-03-02 00:30:00,32.0,18.0,-100.00,South,185,2.0,4.0,56,0.00,,,0.00,0.000000,,2013-03-02 07:30:00,
2013-03-02 00:52:00,32.0,18.0,-100.00,South,185,2.0,4.0,56,0.00,,,0.00,0.000000,,2013-03-02 07:52:00,
2013-03-02 01:01:00,32.0,18.0,-100.00,South,185,2.0,4.0,56,0.00,,,0.00,0.000000,,2013-03-02 08:01:00,
2013-03-02 01:11:00,32.0,18.0,-100.00,South,185,2.0,4.0,56,0.00,,,0.00,0.000000,,2013-03-02 08:11:00,
2013-03-02 01:21:00,32.0,18.0,-100.00,South,185,2.0,4.0,56,0.00,,,0.00,0.000000,,2013-03-02 08:21:00,
2013-03-02 01:30:00,34.0,19.0,-100.00,WSW,249,4.0,7.0,54,0.00,,,0.00,0.000000,,2013-03-02 08:30:00,
2013-03-02 01:52:00,34.0,19.0,-100.00,WSW,249,4.0,7.0,54,0.00,,,0.00,0.000000,,2013-03-02 08:52:00,
2013-03-02 02:01:00,34.0,19.0,-100.00,WSW,249,4.0,7.0,54,0.00,,,0.00,0.000000,,2013-03-02 09:01:00,
2013-03-02 02:11:00,34.0,19.0,-100.00,WSW,249,4.0,7.0,54,0.00,,,0.00,0.000000,,2013-03-02 09:11:00,
2013-03-02 02:21:00,34.0,19.0,-100.00,WSW,249,4.0,7.0,54,0.00,,,0.00,0.000000,,2013-03-02 09:21:00,
2013-03-02 02:30:00,32.0,19.0,-100.00,WSW,238,2.0,6.0,58,0.00,,,0.00,0.000000,,2013-03-02 09:30:00,
2013-03-02 02:52:00,32.0,19.0,-100.00,WSW,238,2.0,6.0,58,0.00,,,0.00,0.000000,,2013-03-02 09:52:00,
2013-03-02 03:01:00,32.0,19.0,-100.00,WSW,238,2.0,6.0,58,0.00,,,0.00,0.000000,,2013-03-02 10:01:00,
2013-03-02 03:15:00,32.0,19.0,-100.00,WSW,238,2.0,6.0,58,0.00,,,0.00,0.000000,,2013-03-02 10:15:00,
2013-03-02 03:21:00,32.0,19.0,-100.00,WSW,238,2.0,6.0,58,0.00,,,0.00,0.000000,,2013-03-02 10:21:00,
2013-03-02 03:30:00,32.0,19.0,-100.00,NE,36,2.0,7.0,59,0.00,,,0.00,0.000000,,2013-03-02 10:30:00,
2013-03-02 03:52:00,32.0,19.0,-100.00,NE,36,2.0,7.0,59,0.00,,,0.00,0.000000,,2013-03-02 10:52:00,
2013-03-02 04:01:00,32.0,19.0,-100.00,NE,36,2.0,7.0,59,0.00,,,0.00,0.000000,,2013-03-02 11:01:00,
2013-03-02 04:11:00,32.0,19.0,-100.00,NE,36,2.0,7.0,59,0.00,,,0.00,0.000000,,2013-03-02 11:11:00,
2013-03-02 04:21:00,32.0,19.0,-100.00,NE,36,2.0,7.0,59,0.00,,,0.00,0.000000,,2013-03-02 11:21:00,
2013-03-02 04:30:00,34.0,19.0,-100.00,SW,227,1.0,7.0,54,0.00,,,0.00,0.000000,,2013-03-02 11:30:00,
2013-03-02 04:52:00,34.0,19.0,-100.00,SW,227,1.0,7.0,54,0.00,,,0.00,0.000000,,2013-03-02 11:52:00,
2013-03-02 05:02:00,34.0,19.0,-100.00,SW,227,1.0,7.0,54,0.00,,,0.00,0.000000,,2013-03-02 12:02:00,
2013-03-02 05:11:00,34.0,19.0,-100.00,SW,227,1.0,7.0,54,0.00,,,0.00,0.000000,,2013-03-02 12:11:00,
2013-03-02 05:21:00,34.0,19.0,-100.00,SW,227,1.0,7.0,54,0.00,,,0.00,0.000000,,2013-03-02 12:21:00,
2013-03-02 05:53:00,34.0,19.0,-100.00,NW,323,1.0,4.0,53,0.00,,,0.00,0.000000,,2013-03-02 12:53:00,
2013-03-02 06:01:00,34.0,19.0,-100.00,NW,323,1.0,4.0,53,0.00,,,0.00,0.000000,,2013-03-02 13:01:00,
2013-03-02 06:11:00,34.0,19.0,-100.00,NW,323,1.0,4.0,53,0.00,,,0.00,0.000000,,2013-03-02 13:11:00,
2013-03-02 06:21:00,34.0,19.0,-100.00,NW,323,1.0,4.0,53,0.00,,,0.00,0.000000,,2013-03-02 13:21:00,
2013-03-02 06:52:00,34.0,19.0,-100.00,North,349,4.0,5.0,53,0.00,,,0.00,0.000000,,2013-03-02 13:52:00,
2013-03-02 07:30:00,36.0,19.0,-100.00,NNE,15,4.0,6.0,50,0.00,,,0.00,50.000000,,2013-03-02 14:30:00,
2013-03-02 07:52:00,36.0,19.0,-100.00,NNE,15,4.0,6.0,50,0.00,,,0.00,50.000000,,2013-03-02 14:52:00,
2013-03-02 08:01:00,36.0,19.0,-100.00,NNE,15,4.0,6.0,50,0.00,,,0.00,50.000000,,2013-03-02 15:01:00,
2013-03-02 08:30:00,43.0,21.0,-100.00,NNW,340,3.0,5.0,41,0.00,,,0.00,265.000000,,2013-03-02 15:30:00,
2013-03-02 08:52:00,43.0,21.0,-100.00,NNW,340,3.0,5.0,41,0.00,,,0.00,265.000000,,2013-03-02 15:52:00,
2013-03-02 09:01:00,43.0,21.0,-100.00,NNW,340,3.0,5.0,41,0.00,,,0.00,265.000000,,2013-03-02 16:01:00,
2013-03-02 09:52:00,48.0,22.0,-100.00,NNW,334,4.0,6.0,36,0.00,,,-99.99,536.000000,,2013-03-02 16:52:00,
2013-03-02 10:52:00,52.0,22.0,-100.00,NW,308,4.0,7.0,30,-99.99,,,0.00,701.000000,,2013-03-02 17:52:00,
2013-03-02 11:01:00,52.0,22.0,-100.00,NW,308,4.0,7.0,30,-99.99,,,0.00,701.000000,,2013-03-02 18:01:00,
2013-03-02 11:52:00,54.0,22.0,-100.00,NNW,330,4.0,10.0,28,-99.99,,,0.00,840.000000,,2013-03-02 18:52:00,
2013-03-02 12:01:00,54.0,22.0,-100.00,NNW,330,4.0,10.0,28,-99.99,,,0.00,840.000000,,2013-03-02 19:01:00,
2013-03-02 12:30:00,54.0,23.0,-100.00,NNW,338,5.0,11.0,30,-99.99,,,0.00,916.000000,,2013-03-02 19:30:00,
2013-03-02 12:52:00,54.0,23.0,-100.00,NNW,338,5.0,11.0,30,-99.99,,,0.00,916.000000,,2013-03-02 19:52:00,
2013-03-02 13:01:00,54.0,23.0,-100.00,NNW,338,5.0,11.0,30,-99.99,,,0.00,916.000000,,2013-03-02 20:01:00,
2013-03-02 13:11:00,54.0,23.0,-100.00,NNW,338,5.0,11.0,30,-99.99,,,0.00,916.000000,,2013-03-02 20:11:00,
2013-03-02 13:21:00,54.0,23.0,-100.00,NNW,338,5.0,11.0,30,-99.99,,,0.00,916.000000,,2013-03-02 20:21:00,
2013-03-02 13:30:00,53.0,25.0,-100.00,NW,318,6.0,13.0,33,0.00,,,0.00,886.000000,,2013-03-02 20:30:00,
2013-03-02 13:52:00,53.0,25.0,-100.00,NW,318,6.0,13.0,33,0.00,,,0.00,886.000000,,2013-03-02 20:52:00,
2013-03-02 14:02:00,53.0,25.0,-100.00,NW,318,6.0,13.0,33,0.00,,,0.00,886.000000,,2013-03-02 21:02:00,
2013-03-02 14:11:00,53.0,25.0,-100.00,NW,318,6.0,13.0,33,0.00,,,0.00,886.000000,,2013-03-02 21:11:00,
2013-03-02 14:21:00,53.0,25.0,-100.00,NW,318,6.0,13.0,33,0.00,,,0.00,886.000000,,2013-03-02 21:21:00,
2013-03-02 14:30:00,55.0,26.0,-100.00,NNW,338,4.0,12.0,33,0.00,,,0.00,825.000000,,2013-03-02 21:30:00,
2013-03-02 14:52:00,55.0,26.0,-100.00,NNW,338,4.0,12.0,33,0.00,,,0.00,825.000000,,2013-03-02 21:52:00,
2013-03-02 15:01:00,55.0,26.0,-100.00,NNW,338,4.0,12.0,33,0.00,,,0.00,825.000000,,2013-03-02 22:01:00,
2013-03-02 15:11:00,55.0,26.0,-100.00,NNW,338,4.0,12.0,33,0.00,,,0.00,825.000000,,2013-03-02 22:11:00,
2013-03-02 15:21:00,55.0,26.0,-100.00,NNW,338,4.0,12.0,33,0.00,,,0.00,825.000000,,2013-03-02 22:21:00,
2013-03-02 15:30:00,55.0,26.0,-100.00,WNW,295,5.0,10.0,32,0.00,,,0.00,668.000000,,2013-03-02 22:30:00,
2013-03-02 15:52:00,55.0,26.0,-100.00,WNW,295,5.0,10.0,32,0.00,,,0.00,668.000000,,2013-03-02 22:52:00,
2013-03-02 16:01:00,55.0,26.0,-100.00,WNW,295,5.0,10.0,32,0.00,,,0.00,668.000000,,2013-03-02 23:01:00,
2013-03-02 16:11:00,55.0,26.0,-100.00,WNW,295,5.0,10.0,32,0.00,,,0.00,668.000000,,2013-03-02 23:11:00,
2013-03-02 16:21:00,55.0,26.0,-100.00,WNW,295,5.0,10.0,32,0.00,,,0.00,668.000000,,2013-03-02 23:21:00,
2013-03-02 16:30:00,54.0,25.0,-100.00,WNW,284,4.0,8.0,32,0.00,,,0.00,345.000000,,2013-03-02 23:30:00,
2013-03-02 16:52:00,54.0,25.0,-100.00,WNW,284,4.0,8.0,32,0.00,,,0.00,345.000000,,2013-03-02 23:52:00,
2013-03-02 17:02:00,54.0,25.0,-100.00,WNW,284,4.0,8.0,32,0.00,,,0.00,345.000000,,2013-03-03 00:02:00,
2013-03-02 17:11:00,54.0,25.0,-100.00,WNW,284,4.0,8.0,32,0.00,,,0.00,345.000000,,2013-03-03 00:11:00,
2013-03-02 17:22:00,54.0,25.0,-100.00,WNW,284,4.0,8.0,32,0.00,,,0.00,345.000000,,2013-03-03 00:22:00,
2013-03-02 17:30:00,49.0,24.0,-100.00,NW,308,4.0,8.0,37,0.00,,,0.00,160.000000,,2013-03-03 00:30:00,
2013-03-02 17:52:00,49.0,24.0,-100.00,NW,308,4.0,8.0,37,0.00,,,0.00,160.000000,,2013-03-03 00:52:00,
2013-03-02 18:01:00,49.0,24.0,-100.00,NW,308,4.0,8.0,37,0.00,,,0.00,160.000000,,2013-03-03 01:01:00,
2013-03-02 18:11:00,49.0,24.0,-100.00,NW,308,4.0,8.0,37,0.00,,,0.00,160.000000,,2013-03-03 01:11:00,
2013-03-02 18:21:00,49.0,24.0,-100.00,NW,308,4.0,8.0,37,0.00,,,0.00,160.000000,,2013-03-03 01:21:00,
2013-03-02 18:30:00,45.0,23.0,-100.00,NNW,327,3.0,6.0,41,0.00,,,0.00,16.000000,,2013-03-03 01:30:00,
2013-03-02 18:52:00,45.0,23.0,-100.00,NNW,327,3.0,6.0,41,0.00,,,0.00,16.000000,,2013-03-03 01:52:00,
2013-03-02 19:01:00,45.0,23.0,-100.00,NNW,327,3.0,6.0,41,0.00,,,0.00,16.000000,,2013-03-03 02:01:00,
2013-03-02 19:11:00,45.0,23.0,-100.00,NNW,327,3.0,6.0,41,0.00,,,0.00,16.000000,,2013-03-03 02:11:00,
2013-03-02 19:21:00,45.0,23.0,-100.00,NNW,327,3.0,6.0,41,0.00,,,0.00,16.000000,,2013-03-03 02:21:00,
2013-03-02 19:30:00,42.0,23.0,-100.00,North,2,5.0,8.0,46,0.00,,,0.00,0.000000,,2013-03-03 02:30:00,
2013-03-02 19:52:00,42.0,23.0,-100.00,North,2,5.0,8.0,46,0.00,,,0.00,0.000000,,2013-03-03 02:52:00,
2013-03-02 20:01:00,42.0,23.0,-100.00,North,2,5.0,8.0,46,0.00,,,0.00,0.000000,,2013-03-03 03:01:00,
2013-03-02 20:11:00,42.0,23.0,-100.00,North,2,5.0,8.0,46,0.00,,,0.00,0.000000,,2013-03-03 03:11:00,
2013-03-02 20:21:00,42.0,23.0,-100.00,North,2,5.0,8.0,46,0.00,,,0.00,0.000000,,2013-03-03 03:21:00,
2013-03-02 20:30:00,42.0,23.0,-100.00,North,6,4.0,9.0,47,0.00,,,0.00,0.000000,,2013-03-03 03:30:00,
2013-03-02 20:52:00,42.0,23.0,-100.00,North,6,4.0,9.0,47,0.00,,,0.00,0.000000,,2013-03-03 03:52:00,
2013-03-02 21:01:00,42.0,23.0,-100.00,North,6,4.0,9.0,47,0.00,,,0.00,0.000000,,2013-03-03 04:01:00,
2013-03-02 21:11:00,42.0,23.0,-100.00,North,6,4.0,9.0,47,0.00,,,0.00,0.000000,,2013-03-03 04:11:00,
2013-03-02 21:21:00,42.0,23.0,-100.00,North,6,4.0,9.0,47,0.00,,,0.00,0.000000,,2013-03-03 04:21:00,
2013-03-02 21:30:00,39.0,23.0,-100.00,North,357,2.0,6.0,52,0.00,,,0.00,0.000000,,2013-03-03 04:30:00,
2013-03-02 21:52:00,39.0,23.0,-100.00,North,357,2.0,6.0,52,0.00,,,0.00,0.000000,,2013-03-03 04:52:00,
2013-03-02 22:01:00,39.0,23.0,-100.00,North,357,2.0,6.0,52,0.00,,,0.00,0.000000,,2013-03-03 05:01:00,
2013-03-02 22:11:00,39.0,23.0,-100.00,North,357,2.0,6.0,52,0.00,,,0.00,0.000000,,2013-03-03 05:11:00,
2013-03-02 22:22:00,39.0,23.0,-100.00,North,357,2.0,6.0,52,0.00,,,0.00,0.000000,,2013-03-03 05:22:00,
2013-03-02 22:30:00,38.0,20.0,-100.00,North,358,2.0,4.0,47,0.00,,,0.00,0.000000,,2013-03-03 05:30:00,
2013-03-02 22:52:00,38.0,20.0,-100.00,North,358,2.0,4.0,47,0.00,,,0.00,0.000000,,2013-03-03 05:52:00,
2013-03-02 23:01:00,38.0,20.0,-100.00,North,358,2.0,4.0,47,0.00,,,0.00,0.000000,,2013-03-03 06:01:00,
2013-03-02 23:11:00,38.0,20.0,-100.00,North,358,2.0,4.0,47,0.00,,,0.00,0.000000,,2013-03-03 06:11:00,
2013-03-02 23:21:00,38.0,20.0,-100.00,North,358,2.0,4.0,47,0.00,,,0.00,0.000000,,2013-03-03 06:21:00,
2013-03-02 23:30:00,41.0,19.0,-100.00,NNW,346,2.0,4.0,41,0.00,,,0.00,0.000000,,2013-03-03 06:30:00,
2013-03-02 23:52:00,41.0,19.0,-100.00,NNW,346,2.0,4.0,41,0.00,,,0.00,0.000000,,2013-03-03 06:52:00,